Location: Newark
(45.2500°N, 7.5833°E)
Time: 14:29:16
(UTC+00:00)

NUDT-PHONESAT - Pass Details

Date: 27 February 2020
Orbit: 486 x 502 km, 97.4° (Epoch: 07 April)

Event Time Altitude Azimuth Distance (km) Brightness Sun altitude
Rises 05:24:25 0° 24° (NNE) 2,596 ? -9.2°
Reaches altitude 10° 05:26:46 10° 38° (NE) 1,710 ? -8.8°
Maximum altitude 05:29:53 25° 95° (E) 1,032 ? -8.3°
Drops below altitude 10° 05:32:58 10° 153° (SSE) 1,704 ? -7.7°
Sets 05:35:18 0° 167° (SSE) 2,584 ? -7.3°
